User: anonymous   Login
Location: Altleiningen
(49.5078°N, 8.0741°E)
Time: 23:11:12
(UTC+00:00)
Language:

Envisat - Orbit

View from above orbital plane
View from above orbital plane
View from above satellite
View from above satellite

Ground track
Ground track

The orbit data is extracted from the following two-line orbital elements,

1 27386U 02009A   21175.55377431  .00000004  00000-0  14832-4 0  9994
2 27386  98.1484 169.2485 0001289  90.7408  18.6612 14.38030824 12094
Epoch (UTC): 24 June 2021 13:17:26
Eccentricity: 0.0001289
inclination: 98.1484°
perigee height: 764 km
apogee height: 766 km
right ascension of ascending node: 169.2485°
argument of perigee: 90.7408°
revolutions per day: 14.38030824
mean anomaly at epoch: 18.6612°
orbit number at epoch: 1209

The dashed part of the orbit path shows where the satellite is in the earth's shadow,  

DLR